{"data":{"norad_id":55317,"epoch":"2026-05-25T03:22:04.927584Z","epoch_age_seconds":62675,"freshness":"FRESH","line1":"1 55317U 23010BA  26145.14033481  .00000601  00000+0  58193-4 0  9995","line2":"2 55317  69.9987 171.7309 0003850 266.9060  93.1659 14.98324978186096","mean_motion":14.98324978,"eccentricity":0.000385,"inclination_deg":69.9987,"raan_deg":171.7309,"arg_perigee_deg":266.906,"mean_anomaly_deg":93.1659,"bstar":5.8193e-5,"rev_number":18609,"period_min":96.107321251638,"perigee_km":569.3955908664,"apogee_km":574.74725135066,"semimajor_km":6950.2084211085,"source":"CELESTRAK","updated_at":"2026-05-25T13:38:17.758723Z"}}